DLH425 KBOS-EDDM

Flight info

Callsign DLH425
Flight time N/A
Altitude 39000
Route CELTK7 CELTK DCT FRILL DCT TUSKY DCT TUDEP/M082F400 DCT 52N050W 53N040W 54N030W 54N020W DCT MALOT DCT GISTI/N0477F410 DCT LUPOR DCT WTD DCT ENJEX DCT ADHAV DCT AXNEF DCT ZIPWE DCT OZZIL DCT SAWPE Q63 CPT UL9 KONAN UL607 MATUG DCT MOVUM T109 HAREM/N0435F350 T104 ELMOX/N0380F270 T104 ROKIL ROKIL1B
Aircraft A388/J-SADE2E3GHIJ3J4J5LM1OP2RWXYZ/LB1D1

Departure

Time 2026-05-07 14:01
Airport Boston Logan International Airport (KBOS)

Arrival

Time N/A
Airport Munich Airport (EDDM)
Time Latitude Longitude Altitude Speed Heading
2026-05-07 12:49 42.37163 -71.02077 31 ft 0 kts 168°
2026-05-07 13:41 42.37163 -71.02078 31 ft 0 kts 168°
2026-05-07 13:41 42.37173 -71.02082 31 ft 2 kts 158°
2026-05-07 13:42 42.37184 -71.02093 29 ft 2 kts 139°
2026-05-07 13:42 42.37192 -71.02108 30 ft 2 kts 121°
2026-05-07 13:42 42.37196 -71.02119 29 ft 2 kts 108°
2026-05-07 13:42 42.37197 -71.02138 27 ft 2 kts 90°
2026-05-07 13:43 42.37193 -71.02157 27 ft 3 kts 68°
2026-05-07 13:43 42.37178 -71.02174 27 ft 2 kts 24°
2026-05-07 13:43 42.37163 -71.02186 26 ft 2 kts 36°
2026-05-07 13:43 42.37149 -71.02199 27 ft 2 kts 36°
2026-05-07 13:44 42.37143 -71.02206 27 ft 0 kts 44°
2026-05-07 13:50 42.37144 -71.02205 27 ft 0 kts 44°
2026-05-07 13:51 42.37144 -71.02204 26 ft 0 kts 44°
2026-05-07 13:51 42.37148 -71.02200 26 ft 0 kts 44°
2026-05-07 13:52 42.37156 -71.02190 27 ft 4 kts 40°
2026-05-07 13:52 42.37186 -71.02152 26 ft 7 kts 49°
2026-05-07 13:53 42.37215 -71.02071 32 ft 14 kts 74°
2026-05-07 13:53 42.37261 -71.01930 34 ft 17 kts 53°
2026-05-07 13:53 42.37272 -71.01793 34 ft 16 kts 129°
2026-05-07 13:53 42.37185 -71.01669 34 ft 20 kts 135°
2026-05-07 13:54 42.37079 -71.01526 33 ft 24 kts 135°
2026-05-07 13:54 42.36961 -71.01369 31 ft 23 kts 135°
2026-05-07 13:54 42.36838 -71.01206 29 ft 21 kts 136°
2026-05-07 13:54 42.36715 -71.01154 33 ft 18 kts 184°
2026-05-07 13:55 42.36596 -71.01203 32 ft 19 kts 201°
2026-05-07 13:55 42.36468 -71.01268 29 ft 20 kts 201°
2026-05-07 13:55 42.36378 -71.01312 30 ft 10 kts 184°
2026-05-07 13:55 42.36355 -71.01309 30 ft 0 kts 159°
2026-05-07 13:56 42.36347 -71.01304 30 ft 2 kts 153°
2026-05-07 13:56 42.36328 -71.01284 31 ft 6 kts 129°
2026-05-07 13:56 42.36296 -71.01215 33 ft 11 kts 121°
2026-05-07 13:56 42.36246 -71.01103 32 ft 17 kts 118°
2026-05-07 13:57 42.36192 -71.00938 31 ft 21 kts 112°
2026-05-07 13:57 42.36130 -71.00734 27 ft 26 kts 112°
2026-05-07 13:57 42.36066 -71.00503 30 ft 23 kts 109°
2026-05-07 13:57 42.36014 -71.00293 32 ft 25 kts 109°
2026-05-07 13:58 42.35946 -71.00071 34 ft 27 kts 126°
2026-05-07 13:58 42.35834 -70.99911 36 ft 18 kts 139°
2026-05-07 13:58 42.35731 -70.99777 33 ft 23 kts 134°
2026-05-07 13:58 42.35612 -70.99612 32 ft 26 kts 136°
2026-05-07 13:59 42.35507 -70.99469 30 ft 17 kts 118°
2026-05-07 13:59 42.35511 -70.99323 32 ft 14 kts 39°
2026-05-07 13:59 42.35568 -70.99315 31 ft 0 kts 320°
2026-05-07 14:00 42.35572 -70.99319 31 ft 9 kts 320°
2026-05-07 14:00 42.35826 -70.99647 34 ft 89 kts 315°
2026-05-07 14:00 42.36408 -71.00432 32 ft 143 kts 315°
2026-05-07 14:00 42.37174 -71.01457 264 ft 158 kts 313°
2026-05-07 14:01 42.37966 -71.02504 791 ft 162 kts 313°
2026-05-07 14:01 42.38708 -71.03655 1375 ft 161 kts 306°
2026-05-07 14:01 42.39303 -71.04937 1886 ft 164 kts 299°
2026-05-07 14:01 42.39872 -71.06368 2163 ft 181 kts 298°
2026-05-07 14:02 42.40510 -71.07973 2415 ft 205 kts 298°
2026-05-07 14:02 42.40915 -71.09908 2813 ft 230 kts 270°
2026-05-07 14:02 42.40467 -71.12070 3376 ft 250 kts 243°
2026-05-07 14:02 42.39454 -71.14008 4233 ft 255 kts 235°
2026-05-07 14:03 42.38324 -71.15891 5093 ft 257 kts 234°
2026-05-07 14:03 42.37226 -71.17763 6125 ft 252 kts 233°
2026-05-07 14:03 42.35894 -71.19279 7053 ft 255 kts 210°
2026-05-07 14:03 42.34162 -71.19865 7994 ft 263 kts 188°
2026-05-07 14:04 42.32319 -71.19429 8813 ft 281 kts 168°
2026-05-07 14:04 42.30482 -71.18463 9595 ft 284 kts 169°
2026-05-07 14:04 42.28627 -71.17520 10211 ft 291 kts 170°
2026-05-07 14:04 42.26672 -71.16484 10410 ft 317 kts 165°
2026-05-07 14:05 42.24672 -71.14945 10655 ft 343 kts 155°
2026-05-07 14:05 42.22783 -71.12867 11206 ft 356 kts 148°
2026-05-07 14:05 42.20946 -71.10667 11827 ft 359 kts 149°
2026-05-07 14:05 42.19046 -71.08438 12258 ft 369 kts 149°
2026-05-07 14:06 42.17123 -71.06000 12458 ft 396 kts 139°
2026-05-07 14:06 42.15642 -71.02724 12835 ft 424 kts 120°
2026-05-07 14:06 42.14835 -70.98795 13224 ft 448 kts 103°
2026-05-07 14:06 42.14798 -70.94527 13632 ft 465 kts 86°
2026-05-07 14:07 42.15538 -70.90261 13994 ft 476 kts 72°
2026-05-07 14:07 42.16670 -70.86028 14333 ft 482 kts 72°
2026-05-07 14:07 42.17685 -70.81703 14696 ft 483 kts 76°
2026-05-07 14:07 42.18487 -70.77309 15060 ft 482 kts 80°
2026-05-07 14:08 42.19138 -70.72878 15457 ft 481 kts 83°
2026-05-07 14:08 42.19711 -70.68434 15832 ft 481 kts 84°
2026-05-07 14:08 42.20252 -70.63991 16214 ft 480 kts 84°
2026-05-07 14:08 42.20786 -70.59541 16601 ft 483 kts 84°
2026-05-07 14:09 42.21323 -70.55045 16991 ft 488 kts 84°
2026-05-07 14:09 42.21870 -70.50495 17355 ft 493 kts 84°
2026-05-07 14:09 42.22419 -70.45925 17745 ft 497 kts 84°
2026-05-07 14:09 42.22974 -70.41299 18141 ft 499 kts 85°
2026-05-07 14:10 42.23529 -70.36672 18491 ft 500 kts 85°
2026-05-07 14:10 42.24083 -70.32041 18849 ft 502 kts 85°
2026-05-07 14:10 42.24638 -70.27372 19204 ft 503 kts 84°
2026-05-07 14:10 42.25191 -70.22706 19565 ft 505 kts 84°
2026-05-07 14:11 42.25745 -70.18013 19887 ft 507 kts 84°
2026-05-07 14:11 42.26165 -70.13304 20255 ft 506 kts 88°
2026-05-07 14:11 42.26727 -70.08579 20667 ft 514 kts 78°
2026-05-07 14:11 42.27919 -70.04073 21036 ft 519 kts 64°
2026-05-07 14:12 42.29642 -69.99711 21436 ft 521 kts 59°
2026-05-07 14:12 42.31482 -69.95492 21820 ft 523 kts 57°
2026-05-07 14:12 42.33375 -69.91277 22207 ft 526 kts 57°
2026-05-07 14:12 42.35277 -69.87052 22607 ft 528 kts 57°
2026-05-07 14:13 42.37190 -69.82780 22963 ft 531 kts 57°
2026-05-07 14:13 42.39092 -69.78503 23365 ft 533 kts 57°
2026-05-07 14:13 42.41004 -69.74183 23775 ft 536 kts 57°
2026-05-07 14:13 42.42893 -69.69903 24110 ft 539 kts 57°
2026-05-07 14:14 42.44843 -69.65473 24456 ft 541 kts 57°
2026-05-07 14:14 42.46521 -69.61655 24764 ft 544 kts 57°
2026-05-07 14:14 42.48461 -69.57239 25114 ft 547 kts 57°
2026-05-07 14:14 42.50404 -69.52807 25473 ft 550 kts 57°
2026-05-07 14:15 42.52362 -69.48335 25788 ft 553 kts 57°
2026-05-07 14:15 42.54334 -69.43825 26212 ft 557 kts 57°
2026-05-07 14:15 42.56309 -69.39301 26587 ft 561 kts 57°
2026-05-07 14:15 42.58307 -69.34718 26979 ft 564 kts 56°
2026-05-07 14:16 42.60310 -69.30114 27362 ft 568 kts 56°
2026-05-07 14:16 42.62324 -69.25478 27743 ft 572 kts 56°
2026-05-07 14:16 42.64348 -69.20812 28134 ft 576 kts 56°
2026-05-07 14:16 42.66382 -69.16116 28495 ft 579 kts 56°
2026-05-07 14:17 42.68431 -69.11378 28931 ft 583 kts 56°
2026-05-07 14:17 42.70489 -69.06612 29352 ft 586 kts 56°
2026-05-07 14:17 42.72558 -69.01810 29772 ft 590 kts 56°
2026-05-07 14:17 42.74636 -68.96981 30139 ft 593 kts 56°
2026-05-07 14:18 42.76723 -68.92122 30486 ft 596 kts 56°
2026-05-07 14:18 42.78794 -68.87295 30852 ft 600 kts 56°
2026-05-07 14:18 42.80899 -68.82378 31168 ft 602 kts 56°
2026-05-07 14:18 42.83012 -68.77434 31539 ft 605 kts 56°
2026-05-07 14:19 42.85129 -68.72472 31917 ft 608 kts 55°
2026-05-07 14:19 42.87252 -68.67487 32309 ft 610 kts 55°
2026-05-07 14:19 42.89386 -68.62469 32690 ft 612 kts 55°
2026-05-07 14:19 42.91487 -68.57522 33065 ft 614 kts 55°
2026-05-07 14:20 42.93663 -68.52386 33460 ft 616 kts 55°
2026-05-07 14:20 42.95809 -68.47314 33863 ft 618 kts 55°
2026-05-07 14:20 42.97956 -68.42229 34205 ft 619 kts 55°
2026-05-07 14:20 43.00107 -68.37127 34563 ft 621 kts 55°
2026-05-07 14:21 43.02264 -68.32002 34925 ft 622 kts 55°
2026-05-07 14:21 43.04422 -68.26865 35215 ft 625 kts 55°
2026-05-07 14:21 43.06584 -68.21708 35584 ft 626 kts 55°
2026-05-07 14:21 43.08745 -68.16547 35987 ft 625 kts 56°
2026-05-07 14:22 43.10887 -68.11415 36355 ft 619 kts 56°
2026-05-07 14:22 43.13020 -68.06297 36733 ft 619 kts 56°
2026-05-07 14:22 43.15146 -68.01191 37115 ft 617 kts 56°
2026-05-07 14:22 43.17260 -67.96106 37530 ft 615 kts 56°
2026-05-07 14:23 43.19370 -67.91016 37874 ft 611 kts 56°
2026-05-07 14:23 43.21467 -67.85955 38329 ft 609 kts 56°
2026-05-07 14:23 43.23553 -67.80911 38670 ft 606 kts 56°
2026-05-07 14:23 43.25623 -67.75896 38784 ft 603 kts 56°
2026-05-07 14:24 43.27683 -67.70894 38793 ft 602 kts 56°
2026-05-07 14:24 43.31801 -67.60878 38791 ft 602 kts 56°
2026-05-07 14:25 43.35911 -67.50842 38796 ft 602 kts 57°
2026-05-07 14:25 43.40002 -67.40818 38777 ft 602 kts 57°
2026-05-07 14:26 43.44064 -67.30829 38775 ft 602 kts 57°
2026-05-07 14:26 43.48141 -67.20770 38782 ft 603 kts 57°
2026-05-07 14:27 43.52221 -67.10669 38785 ft 603 kts 57°
2026-05-07 14:27 43.56491 -67.00780 38779 ft 596 kts 48°
2026-05-07 14:28 43.61919 -66.92319 38795 ft 587 kts 39°
2026-05-07 14:28 43.67569 -66.84177 38788 ft 587 kts 40°
2026-05-07 14:29 43.73224 -66.76038 38792 ft 587 kts 39°
2026-05-07 14:29 43.78887 -66.67907 38793 ft 587 kts 40°
2026-05-07 14:30 43.84527 -66.59789 38770 ft 584 kts 40°
2026-05-07 14:30 43.90152 -66.51673 38782 ft 583 kts 40°
2026-05-07 14:31 43.95757 -66.43563 38756 ft 582 kts 40°
2026-05-07 14:31 44.01343 -66.35455 38738 ft 581 kts 40°
2026-05-07 14:32 44.05984 -66.28694 38752 ft 581 kts 41°
2026-05-07 14:32 44.11548 -66.20560 38749 ft 580 kts 41°
2026-05-07 14:33 44.18012 -66.11078 38759 ft 580 kts 41°
2026-05-07 14:33 44.22658 -66.04243 38735 ft 580 kts 41°
2026-05-07 14:34 44.28200 -65.96069 38734 ft 580 kts 41°
2026-05-07 14:34 44.33715 -65.87911 38738 ft 581 kts 41°
2026-05-07 14:35 44.39292 -65.79637 38763 ft 581 kts 41°
2026-05-07 14:35 44.44787 -65.71458 38760 ft 581 kts 41°
2026-05-07 14:36 44.50313 -65.63211 38759 ft 581 kts 41°
2026-05-07 14:36 44.55835 -65.54943 38768 ft 580 kts 41°
2026-05-07 14:37 44.61342 -65.46674 38754 ft 580 kts 42°
2026-05-07 14:37 44.69583 -65.34256 38766 ft 579 kts 42°
2026-05-07 14:38 44.75071 -65.25954 38758 ft 578 kts 42°
2026-05-07 14:38 44.80536 -65.17662 38745 ft 578 kts 42°
2026-05-07 14:39 44.85996 -65.09354 38742 ft 578 kts 43°
2026-05-07 14:39 44.91448 -65.01032 38735 ft 577 kts 43°
2026-05-07 14:40 44.96893 -64.92697 38732 ft 577 kts 43°
2026-05-07 14:40 45.02323 -64.84360 38751 ft 577 kts 43°
2026-05-07 14:41 45.07746 -64.76007 38740 ft 576 kts 43°
2026-05-07 14:41 45.13159 -64.67643 38751 ft 576 kts 44°
2026-05-07 14:42 45.18559 -64.59277 38737 ft 575 kts 44°
2026-05-07 14:42 45.23950 -64.50895 38701 ft 574 kts 43°
2026-05-07 14:43 45.29323 -64.42519 38729 ft 573 kts 43°
2026-05-07 14:43 45.34675 -64.34152 38726 ft 572 kts 44°
2026-05-07 14:44 45.40017 -64.25773 38717 ft 571 kts 44°
2026-05-07 14:44 45.45341 -64.17397 38719 ft 570 kts 44°
2026-05-07 14:45 45.50643 -64.09030 38707 ft 569 kts 44°
2026-05-07 14:45 45.55941 -64.00645 38706 ft 568 kts 44°
2026-05-07 14:46 45.61223 -63.92260 38712 ft 568 kts 44°
2026-05-07 14:46 45.66492 -63.83869 38705 ft 567 kts 45°
2026-05-07 14:47 45.71721 -63.75516 38703 ft 567 kts 45°
2026-05-07 14:47 45.77018 -63.67028 38704 ft 567 kts 45°
2026-05-07 14:48 45.82277 -63.58577 38711 ft 568 kts 45°
2026-05-07 14:48 45.87528 -63.50112 38714 ft 568 kts 45°
2026-05-07 14:49 45.92779 -63.41622 38733 ft 569 kts 45°
2026-05-07 14:49 45.98015 -63.33125 38740 ft 567 kts 45°
2026-05-07 14:50 46.03201 -63.24688 38726 ft 566 kts 45°
2026-05-07 14:50 46.08444 -63.16133 38745 ft 564 kts 45°
2026-05-07 14:51 46.13618 -63.07662 38735 ft 563 kts 45°
2026-05-07 14:51 46.18743 -62.99243 38720 ft 561 kts 45°
2026-05-07 14:52 46.23877 -62.90788 38728 ft 559 kts 46°
2026-05-07 14:52 46.28977 -62.82361 38721 ft 557 kts 46°
2026-05-07 14:53 46.34081 -62.73900 38721 ft 556 kts 46°
2026-05-07 14:53 46.39158 -62.65459 38727 ft 555 kts 46°
2026-05-07 14:54 46.44210 -62.57033 38719 ft 554 kts 46°
2026-05-07 14:54 46.49257 -62.48590 38717 ft 553 kts 46°
2026-05-07 14:55 46.54292 -62.40142 38726 ft 553 kts 47°
2026-05-07 14:55 46.59324 -62.31673 38720 ft 554 kts 47°
2026-05-07 14:56 46.64347 -62.23192 38725 ft 554 kts 47°
2026-05-07 14:56 46.69374 -62.14677 38737 ft 554 kts 47°
2026-05-07 14:57 46.74389 -62.06156 38741 ft 555 kts 47°
2026-05-07 14:57 46.79408 -61.97601 38734 ft 555 kts 47°
2026-05-07 14:58 46.84418 -61.89035 38735 ft 555 kts 47°
2026-05-07 14:58 46.89420 -61.80457 38733 ft 554 kts 48°
2026-05-07 14:59 46.94402 -61.71885 38727 ft 553 kts 48°
2026-05-07 14:59 46.99380 -61.63294 38721 ft 552 kts 48°
2026-05-07 15:00 47.04345 -61.54699 38726 ft 551 kts 49°
2026-05-07 15:00 47.09254 -61.46172 38724 ft 551 kts 49°
2026-05-07 15:01 47.14184 -61.37582 38712 ft 550 kts 49°
2026-05-07 15:01 47.19112 -61.28970 38715 ft 550 kts 49°
2026-05-07 15:02 47.24024 -61.20359 38724 ft 550 kts 49°
2026-05-07 15:02 47.28933 -61.11723 38721 ft 549 kts 49°
2026-05-07 15:03 47.33830 -61.03081 38724 ft 550 kts 49°
2026-05-07 15:03 47.38725 -60.94417 38713 ft 549 kts 49°
2026-05-07 15:04 47.43608 -60.85746 38728 ft 550 kts 49°
2026-05-07 15:04 47.48489 -60.77051 38750 ft 550 kts 50°
2026-05-07 15:05 47.53376 -60.68318 38739 ft 552 kts 50°
2026-05-07 15:05 47.58265 -60.59550 38749 ft 552 kts 50°
2026-05-07 15:06 47.63151 -60.50762 38759 ft 553 kts 50°
2026-05-07 15:06 47.68034 -60.41950 38759 ft 553 kts 50°
2026-05-07 15:07 47.72910 -60.33122 38763 ft 553 kts 50°
2026-05-07 15:07 47.77789 -60.24259 38770 ft 553 kts 50°
2026-05-07 15:08 47.82658 -60.15387 38795 ft 554 kts 51°
2026-05-07 15:08 47.87518 -60.06501 38800 ft 553 kts 51°
2026-05-07 15:09 47.92364 -59.97610 38792 ft 553 kts 51°
2026-05-07 15:09 47.97195 -59.88720 38805 ft 553 kts 51°
2026-05-07 15:10 48.02015 -59.79819 38796 ft 553 kts 51°
2026-05-07 15:10 48.06873 -59.70819 38800 ft 553 kts 51°
2026-05-07 15:11 48.11656 -59.61927 38818 ft 552 kts 51°
2026-05-07 15:11 48.16462 -59.52965 38831 ft 551 kts 51°
2026-05-07 15:12 48.21247 -59.44011 38823 ft 550 kts 51°
2026-05-07 15:12 48.26021 -59.35048 38818 ft 549 kts 51°
2026-05-07 15:13 48.30781 -59.26083 38807 ft 550 kts 52°
2026-05-07 15:13 48.35539 -59.17090 38806 ft 549 kts 52°
2026-05-07 15:14 48.40288 -59.08084 38826 ft 549 kts 52°
2026-05-07 15:14 48.45031 -58.99061 38825 ft 550 kts 52°
2026-05-07 15:15 48.49767 -58.90020 38830 ft 550 kts 52°
2026-05-07 15:15 48.54502 -58.80948 38839 ft 550 kts 52°
2026-05-07 15:16 48.59231 -58.71860 38850 ft 551 kts 53°
2026-05-07 15:16 48.63954 -58.62752 38857 ft 550 kts 53°
2026-05-07 15:17 48.68670 -58.53627 38878 ft 550 kts 53°
2026-05-07 15:17 48.73381 -58.44479 38878 ft 550 kts 53°
2026-05-07 15:18 48.78077 -58.35330 38893 ft 550 kts 53°
2026-05-07 15:18 48.81969 -58.27723 38890 ft 549 kts 53°
2026-05-07 15:19 48.86632 -58.18580 38913 ft 547 kts 53°
2026-05-07 15:19 48.92036 -58.07948 38903 ft 546 kts 53°
2026-05-07 15:20 48.95912 -58.00294 38899 ft 544 kts 53°
2026-05-07 15:20 49.00522 -57.91164 38910 ft 544 kts 53°
2026-05-07 15:21 49.05120 -57.82025 38906 ft 543 kts 53°
2026-05-07 15:21 49.09674 -57.72945 38911 ft 542 kts 54°
2026-05-07 15:22 49.14277 -57.63733 38906 ft 542 kts 54°
2026-05-07 15:22 49.18812 -57.54624 38904 ft 543 kts 54°
2026-05-07 15:23 49.23381 -57.45419 38925 ft 543 kts 54°
2026-05-07 15:23 49.27929 -57.36228 38962 ft 541 kts 55°
2026-05-07 15:24 49.32466 -57.27021 38953 ft 541 kts 55°
2026-05-07 15:24 49.36987 -57.17816 38951 ft 540 kts 55°
2026-05-07 15:25 49.41493 -57.08612 38951 ft 539 kts 55°
2026-05-07 15:25 49.45994 -56.99386 38952 ft 539 kts 55°
2026-05-07 15:26 49.50483 -56.90150 38953 ft 539 kts 56°
2026-05-07 15:26 49.54970 -56.80887 38954 ft 539 kts 56°
2026-05-07 15:27 49.59452 -56.71606 38949 ft 540 kts 56°
2026-05-07 15:27 49.63935 -56.62286 38958 ft 542 kts 56°
2026-05-07 15:28 49.68420 -56.52931 38955 ft 543 kts 56°
2026-05-07 15:28 49.72905 -56.43541 38952 ft 544 kts 56°
2026-05-07 15:29 49.77389 -56.34121 38961 ft 544 kts 56°
2026-05-07 15:29 49.81866 -56.24682 38977 ft 544 kts 56°
2026-05-07 15:30 49.86341 -56.15213 38979 ft 544 kts 57°
2026-05-07 15:30 49.90805 -56.05735 38957 ft 544 kts 57°
2026-05-07 15:31 49.95267 -55.96225 38956 ft 545 kts 57°
2026-05-07 15:31 49.99713 -55.86716 38954 ft 544 kts 57°
2026-05-07 15:32 50.04152 -55.77189 38954 ft 544 kts 57°
2026-05-07 15:32 50.08575 -55.67661 38957 ft 544 kts 57°
2026-05-07 15:33 50.13008 -55.58076 38967 ft 545 kts 57°
2026-05-07 15:33 50.17437 -55.48466 38971 ft 545 kts 57°
2026-05-07 15:34 50.21849 -55.38857 38978 ft 545 kts 57°
2026-05-07 15:34 50.26225 -55.29292 38978 ft 545 kts 57°
2026-05-07 15:35 50.30653 -55.19580 38976 ft 545 kts 57°
2026-05-07 15:35 50.35003 -55.10000 38977 ft 545 kts 58°
2026-05-07 15:36 50.39414 -55.00253 38972 ft 545 kts 58°
2026-05-07 15:36 50.43756 -54.90621 38980 ft 545 kts 58°
2026-05-07 15:37 50.48119 -54.80909 38990 ft 544 kts 58°
2026-05-07 15:37 50.52472 -54.71181 38987 ft 544 kts 58°
2026-05-07 15:38 50.56808 -54.61455 38985 ft 544 kts 58°
2026-05-07 15:38 50.61142 -54.51699 38984 ft 543 kts 58°
2026-05-07 15:39 50.65466 -54.41930 38980 ft 543 kts 58°
2026-05-07 15:39 50.69778 -54.32149 39008 ft 543 kts 58°
2026-05-07 15:40 50.74075 -54.22365 39014 ft 543 kts 58°
2026-05-07 15:40 50.78369 -54.12553 39003 ft 543 kts 58°
2026-05-07 15:41 50.82639 -54.02759 39015 ft 542 kts 58°
2026-05-07 15:41 50.86911 -53.92930 39012 ft 542 kts 58°
2026-05-07 15:42 50.91176 -53.83095 39024 ft 542 kts 58°
2026-05-07 15:42 50.95433 -53.73248 39019 ft 541 kts 59°
2026-05-07 15:43 50.99678 -53.63392 39036 ft 539 kts 59°
2026-05-07 15:43 51.03898 -53.53556 39043 ft 539 kts 59°
2026-05-07 15:44 51.08114 -53.43692 39040 ft 539 kts 59°
2026-05-07 15:44 51.12321 -53.33812 39046 ft 539 kts 59°
2026-05-07 15:45 51.16150 -53.23627 39047 ft 535 kts 65°
2026-05-07 15:45 51.19471 -53.13060 39047 ft 531 kts 71°
2026-05-07 15:46 51.23919 -52.96864 39060 ft 531 kts 70°
2026-05-07 15:47 51.26893 -52.86072 39056 ft 531 kts 71°
2026-05-07 15:47 51.29838 -52.75240 39058 ft 532 kts 71°
2026-05-07 15:48 51.32729 -52.64548 39287 ft 518 kts 81°
2026-05-07 15:48 51.34212 -52.59247 39135 ft 521 kts 83°
2026-05-07 15:48 51.35679 -52.53909 38780 ft 530 kts 79°
2026-05-07 15:48 51.37321 -52.48593 38550 ft 535 kts 78°
2026-05-07 15:49 51.38924 -52.43276 38734 ft 527 kts 81°
2026-05-07 15:49 51.41873 -52.32611 38856 ft 522 kts 81°
2026-05-07 15:50 51.44640 -52.21955 38646 ft 523 kts 83°
2026-05-07 15:50 51.46080 -52.16575 38465 ft 525 kts 80°
2026-05-07 15:50 51.47621 -52.11308 38713 ft 520 kts 79°
2026-05-07 15:50 51.49125 -52.06066 38829 ft 513 kts 81°
2026-05-07 15:51 51.50550 -52.00791 39024 ft 504 kts 84°
2026-05-07 15:51 51.53249 -51.90498 39003 ft 496 kts 83°
2026-05-07 15:52 51.56272 -51.80774 38980 ft 483 kts 82°
2026-05-07 15:52 51.57806 -51.76053 38977 ft 471 kts 87°
2026-05-07 15:52 51.59112 -51.71289 38735 ft 464 kts 90°
2026-05-07 15:52 51.60404 -51.66508 38097 ft 466 kts 88°
2026-05-07 15:53 51.61671 -51.61817 38171 ft 449 kts 92°
2026-05-07 15:53 51.62850 -51.57240 38020 ft 437 kts 93°
2026-05-07 15:53 51.63978 -51.52713 37484 ft 435 kts 94°